ALCOMSAT 1 (43039 NORAD) Tracking and Keplerian Element Data

This shows tracking and keplerian element data for the satellite.

Feedback or suggestion? Click here.




ElementValue
Catalog43039
NameALCOMSAT 1
Epoch Orbit507
Epoch Day109.86714964
Epoch Year2019
RAAN69.3052
Inclination0.0289
Eccentricity0.0002653
Argument of Perigee332.9414
Mean Anonmoly92.7956
Mean Motion1.00273391
Decay Rate-2.05E-06
L11 43039U 17078A 19109.86714964 -.00000205 00000-0 00000-0 0 9995
L22 43039 0.0289 69.3052 0002653 332.9414 92.7956 1.00273391 5073

Live tracking and technical data element details for ALCOMSAT 1 (NORAD 43039). ALCOMSAT 1 can be tracked NOW for your location showing map with azimuth and elevation plus other details from your city location.

Track the satellite on the map from your city or location and see movement details for azimuth, elevation, latitude, longitude, range, height, and movement on the map or in text.







IsCatalogInMostPopularTable: catalog: 43039, numindb: 211
Update: records affected: 1



GetName: 43039 ALCOMSAT 1

Hit Count: updated at: Sat, 20 Apr 2019 20:18:19 GMT